sat.trackr.live / text

‹ back to catalog

STARLINK-3681

NORAD 51968 · 2022-025N

PAYLOAD ACTIVE UNKNOWN

§ Identity

Operator
Country
US
Launch date
2022-03-09
Launch site
AFETR
Launch vehicle
Mass (kg)
RCS (m²)

Purposes: comms

External: N2YO · Heavens-Above · Gunter

§ Orbital elements

Epoch: 2026-05-24T23:13:27.357600Z

Period
94.01 min
Inclination
53.1613°
Eccentricity
0.0001361
Mean motion
15.31706480 rev/d
Perigee alt
469.8 km
Apogee alt
471.7 km
Semi-major
6,848.9 km
B*
-1.3654e-5
RAAN
29.5165°
Arg perigee
94.4438°
Mean anomaly
265.6718°
Rev number
23,270

§ Raw data

STARLINK-36811 51968U 22025N   26144.96767775 -.00000789  00000+0 -13654-4 0  99992 51968  53.1613  29.5165 0001361  94.4438 265.6718 15.31706480232705

JSON: /api/v1/satellites/51968 · /tle

For live sub-satellite position, see the globe view (requires WebGL).

§ Visibility from observer

Set your observer location to see the next 7 days of passes ≥ 10°. The values pass through the URL so the page stays shareable.

No JS? Fill the form by hand. The geolocation button needs JavaScript.